Jardin Guanabara Heliport

SIGA · Río de Janeiro, Brasil

METAR pasados SIGA · Jardin Guanabara Heliport

A continuación puedes ver los METAR de los últimos días. Selecciona un año para ver los METAR más antiguos, desde el año 2007 en adelante.

24 de mayo de 2024

Hora Código Tiempo Temp. Visibilidad Cielo nuboso Viento METAR/SPECI
23:00
V
23 °C 10 km+ - 070° 070° 3 kt METAR SBGL 250200Z 07003KT 9999 FEW035 23/19 Q1013
22:00
V
23 °C 10 km+ - 310° 310° 4 kt METAR SBGL 250100Z 31004KT 9999 FEW035 23/19 Q1014
21:00
V
24 °C 10 km+ - 310° 310° 4 kt METAR SBGL 250000Z 31004KT 9999 FEW035 24/19 Q1014
20:00
V
25 °C 10 km+ - 210° 210° 7 kt METAR SBGL 242300Z 21007KT 9999 FEW035 25/19 Q1014
19:00
V
26 °C 10 km+ - 220° 220° 22 kt METAR SBGL 242200Z 22022KT 9999 FEW021 SCT066 26/19 Q1015
18:00
V
27 °C 10 km+ - 250° 250° 22 kt METAR SBGL 242100Z 25022KT 9999 FEW040 SCT066 27/19 Q1014
17:00
V
29 °C 10 km+ - 210° 210° 19 kt METAR SBGL 242000Z 21019KT 9999 SCT046 29/17 Q1012
16:00
V
31 °C 10 km+ - 230° 230° 18 kt METAR SBGL 241900Z 23018KT 9999 FEW046 31/17 Q1011
15:00
V
35 °C 10 km+ - 290° 290° 8 kt METAR SBGL 241800Z 29008KT CAVOK 35/16 Q1011
14:00
V
34 °C 10 km+ - 310° 310° 13 kt METAR SBGL 241700Z 31013KT CAVOK 34/17 Q1011
13:00
V
32 °C 10 km+ - 020° 020° 5 kt METAR SBGL 241600Z 02005KT 9999 FEW040 32/18 Q1011
12:00
V
32 °C 10 km+ - 010° 010° 5 kt METAR SBGL 241500Z 01005KT CAVOK 32/19 Q1012
11:00
V
31 °C 10 km+ - 360° 360° 3 kt METAR SBGL 241400Z 36003KT CAVOK 31/20 Q1013
10:00
V
28 °C 8 km - 010° 010° 3 kt METAR SBGL 241300Z 01003KT 8000 NSC 28/20 Q1013
09:00
V
26 °C 8 km - 350° 350° 3 kt METAR SBGL 241200Z 35003KT 8000 NSC 26/20 Q1014
08:00
V
23 °C 10 km+ - 360° 360° 4 kt METAR SBGL 241100Z 36004KT CAVOK 23/21 Q1013
07:00
V
22 °C 10 km+ - 350° 350° 2 kt METAR SBGL 241000Z 35002KT CAVOK 22/20 Q1012
06:00
V
21 °C 10 km+ - 070° 070° 2 kt METAR SBGL 240900Z 07002KT CAVOK 21/20 Q1012
05:00
V
20 °C 10 km+ - 350° 350° 2 kt METAR SBGL 240800Z 35002KT CAVOK 20/18 Q1012
04:00
V
21 °C 10 km+ - 300° 300° 4 kt METAR SBGL 240700Z 30004KT CAVOK 21/19 Q1012
03:00
V
22 °C 10 km+ - 350° 350° 2 kt METAR SBGL 240600Z 35002KT CAVOK 22/19 Q1012
02:00
V
22 °C 10 km+ - 040° 040° 2 kt METAR SBGL 240500Z 04002KT CAVOK 22/19 Q1012
01:00
V
22 °C 10 km+ - 360° 360° 0 kt METAR SBGL 240400Z 00000KT CAVOK 22/20 Q1013
00:00
V
22 °C 10 km+ - 050° 050° 2 kt METAR SBGL 240300Z 05002KT CAVOK 22/20 Q1013

23 de mayo de 2024

Hora Código Tiempo Temp. Visibilidad Cielo nuboso Viento METAR/SPECI
23:00
V
22 °C 10 km+ - 070° 070° 2 kt METAR SBGL 240200Z 07002KT CAVOK 22/20 Q1013
22:00
V
23 °C 10 km+ - 120° 120° 2 kt METAR SBGL 240100Z 12002KT CAVOK 23/19 Q1013
21:00
V
24 °C 10 km+ - 090° 090° 2 kt METAR SBGL 240000Z 09002KT CAVOK 24/20 Q1014
20:00
V
25 °C 10 km+ - 100° 100° 4 kt METAR SBGL 232300Z 10004KT CAVOK 25/20 Q1013
19:00
V
26 °C 10 km+ - 130° 130° 5 kt METAR SBGL 232200Z 13005KT CAVOK 26/20 Q1013
18:00
V
26 °C 10 km+ - 130° 130° 6 kt METAR SBGL 232100Z 13006KT CAVOK 26/20 Q1013
17:00
V
29 °C 10 km+ - 070° 070° 7 kt METAR SBGL 232000Z 07007KT CAVOK 29/17 Q1013
16:00
V
31 °C 10 km+ - 050° 050° 7 kt METAR SBGL 231900Z 05007KT CAVOK 31/19 Q1013
15:00
V
32 °C 10 km+ - 040° 040° 5 kt METAR SBGL 231800Z 04005KT CAVOK 32/18 Q1013
14:00
V
32 °C 10 km+ - 030° 030° 5 kt METAR SBGL 231700Z 03005KT CAVOK 32/17 Q1013
13:00
V
31 °C 10 km+ - 030° 030° 4 kt METAR SBGL 231600Z 03004KT 9999 FEW030 31/17 Q1014
12:00
V
30 °C 10 km+ - 030° 030° 4 kt METAR SBGL 231500Z 03004KT 9999 FEW030 30/19 Q1015
11:00
V
28 °C 10 km+ - 030° 030° 4 kt METAR SBGL 231400Z 03004KT 9999 FEW030 28/20 Q1016
10:00
V
27 °C 10 km+ - 010° 010° 3 kt METAR SBGL 231300Z 01003KT 9999 FEW030 27/21 Q1017
09:00
V
26 °C 10 km+ - 190° 190° 2 kt METAR SBGL 231200Z 19002KT CAVOK 26/21 Q1017
08:00
V
23 °C 10 km+ - 350° 350° 2 kt METAR SBGL 231100Z 35002KT 9999 FEW025 23/21 Q1017
07:00
V
21 °C 8 km - 330° 330° 3 kt METAR SBGL 231000Z 33003KT 300V010 8000 FEW006 21/19 Q1017
06:00
V
20 °C 10 km+ - 050° 050° 2 kt METAR SBGL 230900Z 05002KT CAVOK 20/19 Q1016
05:00
V
19 °C 10 km+ - 230° 230° 1 kt METAR SBGL 230800Z 23001KT CAVOK 19/18 Q1015
04:00
V
20 °C 10 km+ - 060° 060° 1 kt METAR SBGL 230700Z 06001KT CAVOK 20/18 Q1015
03:00
V
20 °C 10 km+ - Var Var 2 kt METAR SBGL 230600Z VRB02KT CAVOK 20/19 Q1016
02:00
V
21 °C 10 km+ - Var Var 2 kt METAR SBGL 230500Z VRB02KT CAVOK 21/19 Q1017
01:00
V
21 °C 10 km+ - 090° 090° 3 kt METAR SBGL 230400Z 09003KT CAVOK 21/19 Q1017
00:00
V
21 °C 10 km+ - 090° 090° 3 kt METAR SBGL 230300Z 09003KT CAVOK 21/19 Q1018

22 de mayo de 2024

Hora Código Tiempo Temp. Visibilidad Cielo nuboso Viento METAR/SPECI
23:00
V
22 °C 10 km+ - 080° 080° 5 kt METAR SBGL 230200Z 08005KT CAVOK 22/20 Q1018
22:00
V
23 °C 10 km+ - 110° 110° 5 kt METAR SBGL 230100Z 11005KT CAVOK 23/20 Q1018
21:00
V
23 °C 10 km+ - 100° 100° 7 kt METAR SBGL 230000Z 10007KT CAVOK 23/20 Q1018
20:00
V
24 °C 10 km+ - 110° 110° 8 kt METAR SBGL 222300Z 11008KT CAVOK 24/20 Q1018
19:00
V
25 °C 10 km+ - 100° 100° 9 kt METAR SBGL 222200Z 10009KT CAVOK 25/20 Q1017
18:00
V
25 °C 10 km+ - 130° 130° 8 kt METAR SBGL 222100Z 13008KT CAVOK 25/21 Q1017
17:00
V
26 °C 10 km+ - 130° 130° 6 kt METAR SBGL 222000Z 13006KT CAVOK 26/20 Q1017
16:00
V
28 °C 10 km+ - 130° 130° 6 kt METAR SBGL 221900Z 13006KT CAVOK 28/20 Q1017
15:00
V
28 °C 10 km+ - 120° 120° 7 kt METAR SBGL 221800Z 12007KT CAVOK 28/19 Q1017
14:00
V
27 °C 10 km+ - 130° 130° 7 kt METAR SBGL 221700Z 13007KT CAVOK 27/20 Q1017
13:00
V
28 °C 10 km+ - 040° 040° 7 kt METAR SBGL 221600Z 04007KT CAVOK 28/20 Q1018
12:00
V
27 °C 10 km+ - 030° 030° 7 kt METAR SBGL 221500Z 03007KT 360V060 CAVOK 27/19 Q1019
11:00
V
26 °C 10 km+ - 040° 040° 6 kt METAR SBGL 221400Z 04006KT CAVOK 26/20 Q1020
10:00
V
24 °C 9 km - 360° 360° 7 kt METAR SBGL 221300Z 36007KT 9000 FEW013 24/20 Q1021
09:00
V
24 °C 8 km - 050° 050° 4 kt METAR SBGL 221200Z 05004KT 360V080 8000 SCT007 24/20 Q1021
08:00
V
22 °C 8 km - 350° 350° 4 kt METAR SBGL 221100Z 35004KT 320V050 8000 FEW017 22/20 Q1021
07:00
V
20 °C 8 km - 060° 060° 3 kt METAR SBGL 221000Z 06003KT 8000 FEW017 20/19 Q1021
06:00
V
20 °C 8 km - 360° 360° 0 kt METAR SBGL 220900Z 00000KT 8000 FEW017 20/18 Q1020
05:00
V
21 °C 9 km - 350° 350° 3 kt METAR SBGL 220800Z 35003KT 9000 SCT033 21/19 Q1020
04:00
M
21 °C 6 km 3.300 ft 290° 290° 3 kt METAR SBGL 220700Z 29003KT 6000 BKN033 21/20 Q1020
03:00
M
22 °C 7 km 3.300 ft 330° 330° 3 kt METAR SBGL 220600Z 33003KT 7000 BKN033 22/20 Q1020
Cambiar esta información